DW5928 Weather Reports


Display with metric or nautical units.
time (UTC)temp
F
wind
direction
speed
MPH
gust
MPH
rain 1hr
in
rain 24hr
in
rain mn
in
humidity
%
barometer
mb
20200401054606 28 119 1.0 2.0 0.00 0.39 0.00 93 1014.8
20200401053034 28 118 1.0 2.0 0.00 0.39 0.00 93 1015.0
20200401051544 28 115 1.0 2.0 0.00 0.39 0.00 93 1015.2
20200401050043 28 113 1.0 2.0 0.00 0.39 0.00 91 1015.2
20200401044529 29 110 1.0 2.0 0.00 0.39 0.00 91 1015.4
20200401043016 28 125 1.0 4.0 0.00 0.39 0.00 93 1015.7
20200401041519 28 141 1.0 4.0 0.00 0.39 0.00 94 1015.8
20200401040036 29 146 1.0 6.0 0.00 0.39 0.00 94 1015.9
20200401034524 29 98 1.0 3.0 0.00 0.39 0.39 93 1016.1
20200401033010 29 134 3.0 6.0 0.00 0.39 0.39 93 1016.2
20200401031530 29 217 2.0 6.0 0.00 0.39 0.39 93 1016.1
20200401030027 30 191 1.0 4.0 0.00 0.39 0.39 93 1016.2
20200401024511 30 108 2.0 4.0 0.00 0.39 0.39 92 1016.4
20200401023014 31 106 0.0 3.0 0.00 0.39 0.39 91 1016.5
20200401021519 32 113 1.0 6.0 0.00 0.39 0.39 91 1016.6
20200401014508 33 108 3.0 6.0 0.00 0.39 0.39 90 1016.7
20200401013005 34 109 4.0 6.0 0.00 0.39 0.39 90 1016.5
20200401011507 34 98 4.0 6.0 0.00 0.39 0.39 95 1016.3
20200401010010 34 112 1.0 2.0 0.00 0.40 0.39 95 1016.4
20200401004509 33 111 1.0 3.0 0.00 0.40 0.39 94 1016.4
20200401003008 33 113 2.0 4.0 0.00 0.40 0.39 92 1016.5
20200401001609 34 123 1.0 3.0 0.00 0.40 0.39 90 1016.3
20200401000007 35 107 2.0 3.0 0.00 0.40 0.39 89 1016.3
20200331234504 34 138 1.0 2.0 0.00 0.40 0.39 89 1016.1
20200331233031 35 124 2.0 3.0 0.00 0.40 0.39 86 1016.1
20200331231524 36 113 2.0 3.0 0.00 0.40 0.39 86 1016.0
20200331230025 38 116 1.0 3.0 0.00 0.40 0.39 83 1016.1
20200331224522 40 134 1.0 3.0 0.01 0.41 0.39 80 1016.1
20200331223007 42 148 0.0 2.0 0.01 0.41 0.39 77 1016.2
20200331221644 43 290 1.0 3.0 0.02 0.41 0.39 69 1016.2
20200331220139 42 283 1.0 4.0 0.02 0.41 0.39 67 1016.5
20200331214624 43 271 2.0 3.0 0.03 0.42 0.39 67 1016.6
20200331213146 42 283 3.0 5.0 0.04 0.41 0.38 67 1016.8
20200331211617 43 315 1.0 4.0 0.04 0.41 0.38 70 1016.8
20200331210110 42 285 3.0 8.0 0.06 0.40 0.37 71 1016.8
20200331204631 42 270 2.0 5.0 0.07 0.39 0.36 70 1016.9
20200331203107 42 307 2.0 5.0 0.10 0.38 0.35 72 1017.2
20200331201555 41 277 2.0 5.0 0.12 0.37 0.34 71 1017.0
20200331200056 41 278 1.0 6.0 0.13 0.35 0.32 77 1017.0
20200331194558 40 204 0.0 6.0 0.16 0.34 0.30 78 1017.1
20200331193042 38 316 0.0 3.0 0.17 0.32 0.28 82 1017.1
20200331191558 37 18 1.0 6.0 0.14 0.28 0.24 85 1017.1
20200331190106 37 333 2.0 4.0 0.13 0.25 0.21 86 1017.2
20200331184549 36 267 0.0 5.0 0.12 0.25 0.18 88 1017.2
20200331183120 35 270 1.0 3.0 0.10 0.20 0.13 92 1017.5
20200331181535 34 276 2.0 5.0 0.08 0.18 0.11 91 1017.8
20200331180033 34 229 1.0 3.0 0.07 0.16 0.09 90 1017.8
20200331174529 34 307 1.0 5.0 0.06 0.14 0.07 91 1018.0
20200331173042 35 295 1.0 6.0 0.03 0.11 0.04 91 1017.9
20200331171541 34 330 2.0 5.0 0.02 0.10 0.03 93 1017.8
20200331170027 34 75 1.0 4.0 0.02 0.09 0.02 94 1018.1
20200331164538 34 307 1.0 8.0 0.02 0.09 0.02 92 1018.2
20200331163019 34 242 0.0 2.0 0.01 0.08 0.01 95 1018.5
20200331161522 33 262 0.0 4.0 0.01 0.08 0.01 95 1018.7
20200331160043 32 278 0.0 3.0 0.00 0.07 0.00 95 1018.8
20200331154520 32 313 0.0 2.0 0.00 0.07 0.00 95 1018.9
20200331153104 31 265 0.0 3.0 0.00 0.07 0.00 96 1019.2
20200331151515 31 288 0.0 0.0 0.00 0.07 0.00 96 1019.3
20200331150037 31 303 0.0 1.0 0.00 0.07 0.00 95 1019.4
20200331144517 31 34 0.0 0.0 0.00 0.07 0.00 95 1019.6
20200331143032 31 297 0.0 1.0 0.00 0.07 0.00 95 1019.7
20200331141514 31 302 0.0 1.0 0.00 0.07 0.00 95 1019.9
20200331140014 31 270 0.0 0.0 0.00 0.07 0.00 95 1019.9
20200331134531 31 201 0.0 1.0 0.00 0.07 0.00 95 1019.9
20200331133022 31 302 0.0 1.0 0.00 0.07 0.00 95 1019.9
20200331131515 30 191 0.0 0.0 0.00 0.07 0.00 96 1019.9
20200331130028 30 191 0.0 1.0 0.00 0.07 0.00 96 1019.8
20200331124516 29 191 0.0 1.0 0.00 0.07 0.00 96 1019.9
20200331123045 29 190 0.0 1.0 0.00 0.07 0.00 97 1019.9
20200331121505 29 190 0.0 0.0 0.00 0.07 0.00 97 1019.9
20200331120005 29 191 0.0 0.0 0.00 0.07 0.00 97 1019.8
20200331114502 0 0.0 0.0 0.00 0.07 0.00 1019.8
20200331113149 0 0.0 0.0 0.00 0.07 0.00 1019.8
20200331110136 0 0.0 0.0 0.00 0.07 0.00 1019.7
20200331104618 0 0.0 0.0 0.00 0.07 0.00 1019.5
20200331103109 0 0.0 0.0 0.00 0.07 0.00 1019.5
20200331100123 0 0.0 0.0 0.00 0.07 0.00 1019.5
20200331094536 0 0.0 0.0 0.00 0.07 0.00 1019.5
20200331093040 26 190 0.0 0.0 0.00 0.07 0.00 100 1019.3
20200331090107 28 190 0.0 0.0 0.00 0.07 0.00 97 1019.3
20200331084609 28 190 0.0 0.0 0.00 0.07 0.00 97 1019.1
20200331083233 28 190 0.0 0.0 0.00 0.07 0.00 97 1019.1
20200331080036 28 190 0.0 2.0 0.00 0.07 0.00 97 1019.0
20200331074552 28 191 0.0 1.0 0.00 0.07 0.00 97 1019.2
20200331073142 28 191 0.0 1.0 0.00 0.07 0.00 98 1019.2
20200331070137 28 190 0.0 1.0 0.00 0.07 0.00 98 1019.1
20200331064541 28 190 0.0 0.0 0.00 0.07 0.00 98 1019.0
20200331063031 28 190 0.0 2.0 0.00 0.07 0.00 98 1019.0